World > North America > United States > Ohio

Lindsey, Ohio Regional Weather

Lat: 41.42N, Lon: 83.22W
Wx Zone: OHZ008Web Search
Lindsey Weather Warning NWS WEATHER ALERT FOR THE LINDSEY, OH AREA - Issued: 314 PM EDT Sat May 8 2021 Lindsey Weather Warning  

Helpful Tip: Type the letters wx in the search engine next time you need to find us.

Feedback


°F Click to change Lindsey hourly weather to Imperial units.Click to change Lindsey hourly weather to Metric units. °C
Lindsey Weather Map
UTC Time: 5/9/2021, 03:51
Your Time:

Lindsey, OH Regional Weather

Expires:202105090400;;818581
ASUS41 KCLE 090312
RWRCLE
OHIO REGIONAL WEATHER ROUNDUP
NATIONAL WEATHER SERVICE WILMINGTON, OH
1100 PM EDT SAT MAY 08 2021

NOTE: "FAIR" INDICATES FEW OR NO CLOUDS BELOW 12,000 FEET WITH NO
SIGNIFICANT WEATHER AND/OR OBSTRUCTIONS TO VISIBILITY.


OHZ001>008-015>018-024>027-034-035-043-044-090400-
   NORTHWEST OHIO
  
CITY           SKY/WX    TMP DP  RH WIND       PRES   REMARKS
DEFIANCE       FAIR      50  37  61 CALM      30.05S                  
FINDLAY        FAIR      51  38  60 SE3       30.06R                  
TOLEDO EXPRESS FAIR      47  35  63 CALM      30.06R                  
TOLEDO EXEC    FAIR      49  37  63 E5        30.07S                  
LIMA           NOT AVBL                                               
$$
 

SKY/WX - Weather  TMP - Temperature  DP - Dew Point  RH - Relative Humidity
WIND - Wind Direction/Speed PRES - Barometric Pressure VSB - Visibility
WCI - Wind Chill Index E13G22 Wind - East Wind 13 mph/Gusts of 22 mph